Tracking 29781 objects as of 15-Oct-2024
HD Live streaming from Space Station
objects crossing your sky now

CHAMRAN-1

Track CHAMRAN-1 now!
10-day predictions


NORAD ID: 61072
Int'l Code: 2024-165B
Perigee: 537.5 km
Apogee: 559.9 km
Inclination: 64.1 °
Period: 95.5 minutes
Semi major axis: 6919 km
RCS: Unknown
Launch date: September 14, 2024
Source: Iran (IRAN)
Launch site: Sharud Missile Test Site (SMTS)
Your satellite tracking list
Your tracking list is empty




NASA's NSSDC Master Catalog

Two Line Element Set (TLE):
1 61072U 24165B   24289.53042162  .00013052  00000-0  84696-3 0  9999
2 61072  64.0895 237.5700 0016179 291.6085  68.3305 15.08245180  4710
Source of the keplerian elements: AFSPC